Location: ???????
(55.3754°N, 39.3545°E)
Time: 10:12:45
(UTC+00:00)

Meteor 1-11 - Pass Details

Date: 14 April 2026
Orbit: 825 x 899 km, 81.2° (Epoch: 18 May)

Event Time Altitude Azimuth Distance (km) Brightness Sun altitude
Rises 17:56:36 0° 345° (NNW) 3,414 8.3 -12.2°
Reaches altitude 10° 17:59:02 10° 346° (NNW) 2,466 7.4 -12.5°
Maximum altitude 18:04:38 87° 76° (ENE) 840 4.2 -13.1°
Enters shadow 18:09:35 13° 166° (SSE) 2,216 5.9 -13.6°
